Temp
25 25 25 25 25 24 24 24 23 23 23 23 22 22 22 22 22 22 22 22 22 22 22 22 22 21 21 21 21 21 21 21 20 20 20 20 20 20 20 20 20 20 20 19 19 19 19 19 19 18 18 18 18 18 18 17 17 16 16 15 15 15 15 14 14 14 14 15 15 15 15 16 16 17 18 18 19 19 20 20 21 21 21 22 22
25 25 25 25 24 24 24 24 23 23 23 22 22 22 22 22 22 22 22 22 22 22 22 22 22 22 21 21 21 21 21 21 21 20 20 20 20 20 20 20 19 19 19 19 19 19 19 19 18 18 18 18 18 18 17 17 16 16 16 15 15 15 15 14 14 14 14 14 15 15 15 15 16 16 17 18 18 19 19 20 20 21 21 21 22
25 25 25 25 24 24 24 24 23 23 23 22 22 22 22 22 22 22 22 22 22 22 22 22 22 22 22 22 22 21 21 21 21 20 20 20 20 20 20 20 20 19 19 19 19 19 19 19 18 18 18 18 18 18 17 17 16 16 16 15 15 15 15 14 14 14 14 14 14 14 15 15 15 16 16 17 18 18 19 19 20 20 21 21 21
25 25 25 25 24 24 24 24 23 23 23 22 22 22 22 22 22 22 23 23 22 22 22 22 22 22 22 22 22 22 22 21 21 21 20 20 20 20 20 20 20 19 19 19 19 19 19 19 18 18 18 18 17 17 17 17 16 16 16 15 15 15 15 14 14 14 13 13 14 14 14 14 15 15 16 17 17 18 19 19 20 20 20 21 21
25 25 25 25 24 24 24 23 23 23 23 23 22 22 23 23 23 23 23 23 22 22 22 22 22 22 22 22 22 22 22 21 21 21 21 20 21 20 20 20 19 19 19 19 19 19 19 19 19 18 18 18 17 17 17 17 16 16 16 15 15 15 15 14 14 14 13 13 13 14 14 14 14 15 15 16 17 18 18 19 19 20 20 20 21
25 25 25 25 24 24 24 24 23 23 23 23 23 23 23 23 23 23 23 22 22 22 22 22 22 22 22 22 22 22 21 21 21 21 21 21 21 20 20 20 19 19 19 19 19 19 19 19 19 19 18 18 18 17 17 17 17 16 16 15 15 15 14 14 14 14 14 13 13 13 14 14 14 15 15 16 17 17 18 18 19 19 20 20 20
25 25 25 25 24 24 24 24 24 23 23 23 23 23 23 23 23 23 23 23 22 22 22 22 22 22 22 22 22 22 21 21 21 21 21 21 20 20 20 19 19 19 19 19 19 19 18 18 19 19 18 18 18 17 17 17 17 16 16 16 15 15 14 14 14 14 13 13 13 13 14 14 14 15 15 16 16 17 17 18 18 19 20 20 20
25 25 25 24 24 24 24 24 24 23 23 23 23 23 23 23 23 23 23 23 22 22 21 21 22 22 22 22 22 22 21 21 21 21 21 21 20 20 20 19 19 19 19 19 19 19 18 18 18 19 18 18 18 18 18 17 17 17 16 16 15 15 14 14 14 13 13 13 13 14 14 14 14 15 15 15 16 17 17 17 18 19 19 20 20
25 25 24 24 24 24 24 24 24 24 23 23 23 23 23 23 23 23 23 23 22 22 21 21 21 22 22 22 21 21 21 21 21 21 21 20 20 20 20 19 19 19 19 19 19 19 19 18 18 18 18 18 18 18 18 17 17 17 16 16 15 15 14 14 13 13 13 13 13 14 14 14 14 15 15 15 16 16 17 17 18 18 19 20 20
25 25 24 25 25 24 24 24 24 24 24 23 24 24 23 23 23 23 23 22 22 22 21 21 21 21 22 22 21 22 21 21 21 21 21 20 20 20 19 19 19 19 19 19 19 19 19 18 18 18 18 18 18 18 18 17 17 16 16 16 15 15 14 14 13 14 14 14 14 14 14 14 14 15 15 15 15 16 16 17 17 18 19 19 20
25 25 25 25 25 24 24 24 24 24 24 24 24 24 23 23 23 23 22 22 22 22 21 21 21 22 22 22 22 22 21 21 21 21 21 20 20 20 19 19 19 19 19 18 18 18 18 18 18 18 18 18 18 18 17 17 17 16 16 16 15 15 14 14 14 14 14 14 14 14 14 14 14 14 15 15 15 15 16 16 17 17 18 19 19
25 25 25 24 24 25 25 24 24 24 24 24 24 23 23 23 23 22 22 22 22 22 22 22 22 22 22 22 22 22 21 21 21 21 21 20 20 20 20 19 19 19 18 18 18 18 18 18 18 18 18 18 17 17 17 17 17 16 16 15 15 15 15 15 14 14 14 14 13 14 14 14 14 14 15 15 15 15 16 16 16 17 17 18 19
23 23 22 21 23 24 25 25 25 24 24 24 24 23 23 23 23 22 22 22 22 22 22 22 22 22 22 22 22 22 21 21 21 21 21 20 20 20 20 19 19 19 18 18 18 18 18 18 18 18 18 18 17 17 17 17 16 16 15 15 15 15 15 16 16 15 14 14 13 13 14 14 14 14 14 14 15 15 15 16 16 17 17 18 19
20 20 20 21 23 24 24 25 25 24 24 24 23 23 23 23 23 22 22 22 22 22 22 22 22 22 22 22 22 22 21 21 21 21 20 20 20 20 19 19 19 19 18 18 18 18 17 17 17 17 18 18 18 17 17 17 16 16 15 15 15 15 16 16 16 16 15 14 14 13 14 13 13 13 13 14 14 15 15 15 16 16 17 17 18
20 20 21 22 23 24 24 25 24 24 24 24 23 23 23 23 23 23 23 22 22 22 22 22 22 22 22 22 22 22 21 21 21 21 20 20 20 20 19 19 19 18 18 18 18 17 17 17 17 17 18 18 18 18 17 16 16 15 15 15 15 15 15 16 16 15 14 14 14 14 13 13 13 13 13 13 13 14 15 15 15 16 16 17 18
21 21 21 22 23 24 24 24 24 24 24 23 24 23 23 23 23 23 23 22 22 22 22 22 22 22 22 22 22 21 21 20 20 20 20 20 19 19 19 19 18 18 18 18 18 17 17 17 17 17 18 18 18 18 17 16 16 15 15 15 15 15 15 16 16 15 14 14 14 14 14 13 13 13 13 13 13 13 14 15 15 15 16 16 17
22 22 21 22 23 24 24 24 24 24 24 24 24 23 23 23 23 23 23 22 22 22 22 22 22 22 22 22 21 21 20 20 20 19 19 19 19 19 18 18 18 18 18 18 17 17 17 17 17 17 18 18 18 17 16 16 15 15 14 14 14 14 15 15 15 14 14 15 15 14 14 13 13 13 13 13 13 13 13 14 15 15 16 16 17
23 22 22 22 24 24 24 24 24 24 24 24 24 24 23 23 23 23 23 22 22 22 22 22 22 22 22 21 21 20 20 20 20 19 19 18 18 18 17 18 18 18 17 17 17 17 17 17 17 17 18 18 17 17 16 15 15 15 14 13 13 13 13 14 14 14 15 15 15 14 14 14 13 13 13 13 14 14 13 13 14 15 15 16 17
23 22 22 23 24 24 24 24 24 24 24 24 24 24 23 23 23 23 23 22 22 22 22 22 22 21 21 21 20 20 20 19 19 19 19 18 17 17 17 17 17 17 17 16 16 17 16 16 17 17 17 17 17 16 16 15 15 14 13 13 12 12 13 13 13 14 15 14 14 14 14 13 13 13 13 14 14 15 14 13 13 14 15 16 17
23 23 23 24 25 25 25 24 24 24 24 24 24 24 23 23 23 23 22 22 22 22 22 21 21 21 21 20 20 19 19 19 18 18 18 17 17 17 17 16 16 16 16 16 16 16 16 16 17 17 17 17 17 16 16 15 14 13 13 12 11 12 12 13 14 15 14 14 14 14 13 13 13 13 13 13 14 15 14 14 13 14 14 15 17
23 23 24 25 25 25 25 25 24 24 24 24 24 24 23 23 22 22 22 22 22 21 21 21 20 20 20 20 19 19 19 19 18 17 16 16 16 16 16 16 16 16 16 16 16 16 16 16 16 17 17 17 16 16 15 15 14 13 12 12 12 12 12 13 14 15 14 13 13 13 13 13 13 13 13 13 14 14 15 14 13 13 14 15 17
24 24 25 25 25 25 25 25 25 25 24 24 24 23 22 22 22 22 22 22 21 21 20 20 20 19 19 19 19 19 19 19 18 16 16 16 16 16 16 16 16 15 15 16 16 16 16 16 16 16 16 16 16 16 15 14 13 13 13 12 12 13 13 13 14 14 14 13 13 13 13 12 13 13 13 13 13 14 14 14 13 13 14 15 17
24 24 25 25 25 25 25 25 25 24 24 24 23 22 22 22 22 21 21 21 20 20 20 20 19 19 18 18 18 18 18 18 17 15 15 15 15 15 16 16 16 15 15 15 16 16 16 16 16 16 16 16 16 15 15 14 13 13 13 13 13 13 13 13 14 13 13 12 12 12 12 12 12 12 13 13 13 14 14 14 14 13 14 14 16
24 24 25 25 25 24 24 24 24 23 23 22 22 21 21 21 21 20 20 20 19 19 19 19 19 18 18 18 18 18 18 17 15 15 15 15 15 15 16 16 16 15 15 15 15 15 15 16 16 16 16 16 16 15 15 14 13 13 12 12 12 13 13 12 12 11 11 11 12 12 12 12 12 12 13 13 12 13 15 15 14 14 14 15 16
25 25 25 24 24 24 24 23 23 23 22 22 21 21 20 20 20 20 20 20 19 19 19 19 18 18 17 17 17 17 17 15 15 15 15 15 15 16 16 15 15 15 15 15 15 15 15 16 16 16 15 15 15 15 14 13 13 12 12 12 12 12 11 11 10 10 10 11 11 11 12 12 12 12 12 13 12 13 14 15 15 15 15 16 17
25 24 24 24 24 23 23 22 22 22 21 21 20 20 20 20 20 20 20 20 19 19 19 18 18 17 17 16 16 16 15 15 15 15 15 15 16 16 15 15 15 15 15 15 15 15 16 16 16 15 15 15 15 14 13 13 12 12 11 11 11 11 10 10 9 10 10 10 11 11 11 12 12 12 12 13 13 12 13 14 16 16 17 17 18
24 23 22 23 23 23 22 22 21 21 20 20 20 20 20 20 20 19 19 19 19 19 18 18 17 17 17 16 16 15 15 14 14 14 15 15 15 15 15 15 15 15 15 15 15 16 15 15 15 15 15 14 14 13 13 12 12 12 11 11 11 10 10 9 9 9 10 10 10 11 12 12 12 12 12 12 13 13 12 13 14 16 17 18 18
24 23 22 22 22 22 22 21 21 20 20 20 20 20 20 20 19 19 18 18 18 18 17 17 17 17 16 16 16 15 14 14 14 14 14 15 15 14 14 14 14 14 14 14 15 15 15 14 14 14 14 14 13 12 12 12 11 11 11 10 10 10 9 9 9 9 9 10 10 11 11 11 11 11 12 12 13 13 13 13 13 14 15 17 18
23 23 22 22 21 21 21 21 20 20 20 20 20 19 18 18 18 18 18 18 17 17 17 16 16 16 16 15 15 15 14 13 14 14 14 14 14 14 14 14 14 14 13 14 14 14 14 14 14 13 13 13 12 12 11 11 11 11 10 10 10 9 9 9 9 9 9 9 9 10 10 11 11 11 11 12 12 13 13 13 13 13 13 14 14
23 23 22 22 21 21 21 21 20 20 20 20 19 18 17 17 17 17 17 16 16 16 16 16 15 15 15 14 14 14 13 13 13 13 14 14 14 13 13 13 13 13 13 14 14 13 13 13 12 12 12 12 11 11 11 10 10 10 10 10 9 9 9 8 8 8 8 9 9 9 10 10 10 10 11 11 12 12 13 13 13 13 13 13 12
23 22 22 22 21 21 21 21 21 20 20 19 18 17 16 15 15 15 15 14 14 15 15 14 14 14 14 14 13 13 13 13 13 13 13 13 13 13 13 13 13 13 13 13 13 13 12 12 11 11 11 11 11 10 10 9 9 9 9 9 9 9 8 8 8 8 8 9 9 9 9 10 10 10 11 11 11 12 12 13 13 13 13 12 12
23 23 22 22 22 21 21 21 21 21 20 19 18 17 16 14 13 12 13 13 13 13 14 13 13 13 13 13 12 12 12 12 12 12 12 12 13 12 12 12 12 12 13 13 12 11 11 10 10 10 10 10 10 9 9 9 9 9 9 9 9 9 8 8 8 8 8 8 8 9 9 9 10 10 10 11 11 11 12 12 13 13 13 13 12
23 22 22 22 22 21 21 21 21 21 20 19 18 17 16 15 13 12 12 12 12 13 13 13 13 12 12 12 12 12 12 12 12 11 12 12 12 13 12 12 12 12 12 12 11 10 10 9 9 9 9 9 9 9 9 9 9 9 8 8 8 8 8 8 8 8 8 8 8 8 9 9 10 10 10 11 11 11 11 12 12 13 13 13 13
22 22 22 21 21 21 21 21 21 21 20 20 18 17 16 15 14 13 12 11 11 12 12 12 12 12 12 11 11 12 12 11 11 11 11 12 12 13 12 11 11 11 11 10 9 9 9 9 9 9 9 9 9 9 9 9 9 9 9 8 8 8 8 8 7 8 8 8 8 8 9 9 9 10 10 10 10 10 11 11 11 12 12 13 13
22 22 21 21 21 21 21 21 21 20 20 20 19 18 17 16 15 14 13 12 11 11 11 11 11 11 11 11 11 11 11 11 11 11 11 12 12 12 12 11 10 10 10 10 9 9 9 9 9 9 9 9 9 9 9 9 9 9 9 8 8 8 8 7 7 7 7 8 8 8 8 9 9 9 10 10 10 10 10 10 11 11 12 12 13
21 21 21 21 21 21 20 20 20 20 19 19 18 18 17 16 15 15 14 13 11 11 12 11 11 11 11 11 11 11 11 11 11 11 11 11 11 12 11 11 10 10 9 9 9 9 9 9 9 9 9 9 9 9 9 9 9 9 9 8 8 8 7 7 7 7 7 8 8 8 8 9 9 9 9 10 10 10 10 10 10 11 11 11 12
21 20 20 20 20 20 20 19 19 19 18 18 18 17 17 16 16 15 15 13 12 12 12 11 11 11 10 11 11 11 11 11 11 11 11 11 11 11 10 10 10 9 9 10 10 10 9 9 9 8 8 8 8 8 8 8 8 8 8 8 8 7 7 7 7 7 7 7 8 8 8 9 9 9 9 10 10 10 10 10 10 10 10 10 11
20 20 19 19 19 19 19 18 18 18 18 17 17 17 16 16 16 15 15 14 13 12 12 11 11 10 10 10 11 11 11 11 11 11 11 10 10 10 10 9 9 9 9 10 10 10 9 9 9 8 8 8 8 8 8 8 8 8 8 7 7 7 7 7 6 7 7 7 8 8 8 9 9 9 9 9 10 10 10 10 9 10 10 10 10
19 19 19 18 18 18 18 18 17 17 17 17 16 16 16 16 15 15 15 15 14 13 12 11 10 10 11 11 11 11 11 11 11 11 10 10 10 10 9 9 9 9 9 10 10 10 9 9 9 8 8 8 8 8 8 8 7 7 7 7 6 6 6 6 6 6 6 7 7 8 8 9 9 9 9 10 10 10 10 10 9 10 9 9 9
18 18 18 18 18 17 17 17 17 17 17 16 16 16 16 15 15 15 15 14 14 13 12 11 11 11 11 11 11 11 11 11 11 11 10 10 10 9 9 9 9 9 9 9 9 9 9 9 9 8 8 8 8 7 7 7 7 7 6 6 5 5 5 5 5 6 6 6 7 7 8 8 9 9 9 9 10 10 10 10 10 9 9 9 9
18 18 17 17 17 17 17 17 16 16 16 16 16 16 16 15 15 15 14 14 14 13 12 11 11 11 11 11 11 11 11 11 11 11 10 10 9 9 9 9 9 9 9 9 9 9 9 9 9 8 8 8 7 7 7 6 6 6 6 6 5 5 5 5 5 5 6 6 7 7 8 8 9 9 9 9 9 10 10 10 10 10 9 9 9
17 17 17 17 17 16 16 16 16 16 16 16 16 16 15 15 15 15 14 14 14 13 12 11 10 10 10 10 10 10 10 10 10 10 10 10 10 9 9 9 9 9 9 9 9 9 9 9 9 8 8 7 7 7 6 6 6 6 6 6 6 5 5 5 5 5 6 6 7 7 7 8 8 9 9 9 9 9 9 10 10 10 10 10 9
17 17 16 16 16 16 15 15 15 15 15 15 15 15 15 14 14 14 14 14 13 13 12 11 10 10 10 10 10 10 10 10 10 10 10 10 10 10 9 9 9 9 9 9 9 9 9 9 8 8 8 7 7 6 6 5 5 6 6 6 6 5 5 5 5 6 6 6 7 7 7 8 8 8 8 8 9 9 9 9 10 10 10 10 10
16 16 16 15 15 15 14 14 14 14 14 14 14 14 14 14 14 14 14 14 14 13 12 11 10 10 10 10 10 10 10 10 10 10 10 10 10 10 10 9 9 9 8 9 9 8 8 8 8 8 7 7 6 6 5 5 5 5 5 6 6 5 5 5 5 6 6 6 7 7 7 7 8 8 8 8 9 9 9 9 10 10 10 10 10
16 16 15 15 14 14 14 14 14 14 14 14 14 14 14 13 14 14 14 14 14 13 12 11 10 10 10 10 10 10 10 10 10 10 9 9 9 10 10 9 9 9 8 8 8 8 8 8 7 7 7 6 6 6 5 5 5 5 5 5 5 5 5 5 5 6 6 6 7 7 7 7 8 8 8 8 8 9 9 9 9 10 10 10 10
16 15 15 15 14 14 14 14 14 14 14 13 13 13 13 13 14 14 14 14 14 13 12 11 11 10 10 10 10 10 10 10 10 10 10 9 9 10 10 9 9 9 9 8 8 8 8 7 7 7 6 6 6 5 5 5 5 5 5 5 5 5 5 5 5 6 6 6 7 7 7 7 7 8 8 8 8 8 9 9 9 10 10 10 10
16 15 15 15 14 14 14 14 14 14 14 13 13 13 13 14 14 14 14 13 13 13 13 12 12 11 11 11 11 11 10 10 10 10 10 10 10 10 10 9 9 9 9 8 8 8 7 7 7 7 6 6 6 5 5 5 4 4 4 5 5 5 5 5 5 6 6 6 7 7 7 7 7 7 8 8 8 8 8 9 9 10 10 10 10
16 15 15 15 15 14 14 14 14 14 14 14 14 14 14 14 14 14 14 13 13 13 13 13 12 12 11 12 12 11 11 10 10 10 10 10 10 10 10 9 9 9 8 8 8 7 7 7 7 6 6 6 5 5 5 5 5 4 4 4 5 5 5 5 5 6 6 6 6 7 7 7 7 7 7 7 8 8 8 8 9 9 9 9 10
16 16 16 16 15 15 14 14 14 14 15 14 14 14 14 14 14 14 14 13 13 13 13 13 13 12 12 12 12 11 11 11 11 11 11 10 10 9 9 9 9 9 8 8 8 7 7 7 7 6 6 6 6 5 5 5 5 5 4 4 5 5 5 5 5 6 6 6 6 6 6 6 6 7 7 7 7 7 8 8 8 9 9 9 9
16 16 16 16 16 16 15 15 15 15 15 15 15 14 14 14 14 14 13 13 13 13 13 12 12 12 12 12 12 12 12 12 12 11 11 10 10 9 9 9 9 9 8 8 8 7 7 7 7 6 6 6 5 5 5 5 5 5 4 4 5 5 5 5 5 5 6 6 6 6 6 6 6 6 6 7 7 7 7 7 8 8 8 8 9
15 16 16 16 16 16 16 16 16 15 15 15 15 15 15 14 14 14 13 13 13 12 12 12 12 12 12 12 12 12 12 12 12 11 11 10 10 9 9 9 9 8 8 8 8 7 7 7 7 6 6 5 5 5 5 5 5 4 4 5 5 5 5 5 5 5 5 6 6 6 6 6 6 6 6 6 6 7 7 7 7 8 8 8 8
Height
795 797 798 800 801 803 804 805 806 808 810 812 813 814 816 816 816 817 817 817 817 817 818 818 818 818 818 818 818 817 817 817 817 817 816 815 815 814 814 814 813 813 813 812 812 812 811 811 811 810 810 810 809 809 808 807 806 805 805 803 801 801 799 799 795 787 783 783 780 775 774 771 767 765 764 760 758 758 757 757 756 755 755 754 754
792 794 796 798 799 801 803 804 804 806 808 810 811 813 814 814 814 815 816 816 816 816 816 816 817 816 816 816 816 815 815 815 815 814 814 813 813 812 812 811 811 811 811 811 810 810 809 809 808 808 808 808 807 807 806 805 805 803 802 801 799 798 797 795 793 787 780 778 777 772 770 769 764 761 760 757 754 754 753 752 751 751 750 750 749
788 791 794 796 798 799 801 803 803 805 807 809 810 811 812 812 813 814 814 814 815 815 815 815 815 815 814 814 814 813 813 812 812 812 812 812 811 810 810 809 809 809 809 808 808 808 807 807 806 806 806 805 805 805 804 803 802 801 799 798 797 795 795 793 790 787 780 775 774 770 766 765 762 758 756 754 751 750 748 747 746 746 746 745 745
785 789 792 794 796 798 799 800 801 802 805 807 808 809 810 810 811 811 811 812 813 813 814 814 814 813 813 812 812 811 811 810 810 810 810 810 809 808 808 807 807 806 806 806 806 806 805 804 804 804 803 803 802 802 802 801 800 799 797 796 795 793 791 790 788 785 780 774 771 769 765 762 759 755 752 749 746 745 744 742 741 741 741 741 740
782 786 789 792 793 795 797 798 798 799 803 805 806 808 808 808 809 809 809 810 811 812 812 812 812 811 811 811 810 809 809 809 808 808 808 807 807 806 806 805 805 804 804 804 804 803 803 802 802 801 801 800 800 799 799 798 797 796 794 792 791 790 788 787 785 782 779 773 769 767 763 759 756 752 749 746 743 740 739 738 737 736 736 735 735
780 784 787 789 791 793 794 795 795 797 800 803 805 806 806 807 808 807 807 808 810 810 810 810 810 810 810 809 808 808 808 807 807 806 805 805 805 804 804 803 803 802 802 802 801 801 801 800 799 799 798 797 797 796 796 795 794 792 791 789 788 787 785 784 782 779 777 772 767 764 760 756 753 749 745 744 740 736 735 734 732 732 731 731 730
779 782 785 786 788 790 791 792 793 795 799 801 803 804 804 806 806 805 806 807 808 808 809 809 808 808 808 807 807 806 806 805 805 804 803 803 803 802 802 801 801 800 800 800 800 799 798 798 797 796 795 794 793 793 792 791 790 789 788 786 785 784 782 781 779 777 774 770 765 761 758 754 750 746 743 740 737 733 732 731 728 727 727 726 725
777 780 782 783 786 788 788 790 792 795 798 799 801 802 802 804 804 804 804 805 806 807 807 807 807 807 806 806 805 805 804 803 802 802 801 801 801 800 800 799 799 798 798 797 797 797 796 795 794 793 792 791 790 789 788 788 787 786 785 784 782 781 780 779 777 774 771 768 763 759 755 751 747 744 741 737 734 730 728 727 725 722 722 722 721
773 776 778 780 783 785 786 788 791 794 796 798 799 800 800 801 802 802 802 803 804 805 805 805 805 805 804 804 803 803 802 801 800 799 799 799 798 798 797 797 796 796 796 795 794 794 793 792 791 790 789 788 787 786 786 785 784 782 782 781 780 779 778 777 775 772 769 765 761 756 753 749 745 741 739 735 732 729 726 724 721 719 719 718 716
768 771 774 776 779 780 782 785 789 792 794 796 797 798 798 799 799 800 801 801 803 803 803 803 803 803 802 802 802 801 800 799 798 797 797 796 796 796 795 795 794 794 793 793 792 791 790 790 789 788 787 786 785 784 783 783 781 780 779 778 777 776 775 774 772 769 766 763 759 754 751 747 743 739 736 732 730 727 724 721 718 717 716 715 713
765 768 770 773 776 778 779 783 787 790 792 794 795 795 796 796 797 798 799 799 800 801 801 801 800 800 800 800 800 799 798 798 797 796 795 794 794 793 793 792 792 792 791 791 790 789 788 787 787 786 785 783 782 781 780 779 778 777 777 776 775 774 773 771 769 766 764 761 757 753 748 744 740 736 733 729 726 724 722 719 717 714 713 712 710
764 766 769 776 780 779 780 783 786 788 790 792 792 793 794 794 795 796 797 797 798 798 798 798 798 798 798 798 797 797 796 796 795 794 793 793 792 791 791 791 790 790 789 788 788 787 786 785 785 783 782 781 779 778 776 776 775 774 773 773 772 771 770 768 765 763 761 758 754 749 745 740 736 732 729 726 723 720 718 716 714 711 710 708 706
765 768 773 781 784 781 780 783 785 787 788 789 790 791 791 792 793 794 794 795 795 795 795 795 795 795 795 795 795 794 794 794 793 792 792 791 791 790 789 789 788 787 787 786 786 785 784 783 782 781 780 778 776 774 773 772 772 771 770 770 769 767 766 764 762 759 757 754 750 745 741 737 732 728 725 723 720 717 714 712 710 708 707 704 702
764 769 775 781 783 782 781 782 784 786 787 788 788 788 789 789 790 791 792 793 793 793 793 792 792 793 792 792 792 791 791 791 790 790 789 788 788 787 787 786 786 785 785 784 783 783 782 781 780 779 778 776 774 773 771 770 769 768 767 766 765 763 761 759 757 755 753 750 746 741 736 732 728 722 719 717 715 712 709 707 706 705 703 701 699
763 770 775 777 778 780 780 781 783 784 785 786 786 786 786 787 788 789 790 790 790 790 790 790 790 790 790 790 789 788 788 788 787 787 786 786 786 785 784 784 783 782 782 781 781 780 780 779 777 776 775 774 772 771 769 768 767 765 764 763 761 759 757 755 753 751 748 745 741 736 730 725 721 715 711 708 707 705 703 701 701 701 700 698 696
766 770 773 773 775 777 778 780 781 782 783 783 783 783 784 784 786 787 787 788 788 788 788 788 787 788 788 787 786 786 786 785 785 784 784 784 783 782 782 781 781 780 779 778 778 778 777 776 775 774 773 771 770 769 768 767 765 763 761 759 758 755 752 751 749 747 745 741 736 730 724 718 713 707 702 699 697 696 697 696 695 695 695 694 691
762 765 768 770 772 774 776 778 779 780 780 780 780 780 781 782 784 784 785 785 785 785 785 785 785 785 785 785 784 784 783 782 781 781 781 781 781 780 780 779 778 777 776 776 776 775 775 774 773 772 770 769 768 767 766 765 763 761 759 757 755 752 749 747 745 743 740 736 730 724 717 711 704 697 691 687 684 686 689 688 686 688 689 688 686
757 759 763 767 769 771 773 775 776 777 777 777 777 777 778 780 781 781 782 782 783 783 783 783 784 783 783 783 782 781 780 779 779 779 777 777 778 778 779 778 776 775 774 774 773 773 772 772 771 770 768 767 766 765 764 763 761 759 757 755 752 749 746 744 741 737 734 729 723 717 710 703 695 687 681 676 672 674 676 676 677 682 683 681 680
754 756 760 764 766 768 770 772 773 773 773 773 773 774 775 777 778 778 779 780 781 781 781 781 782 782 781 780 779 779 778 777 777 777 776 776 776 776 776 776 774 773 772 772 772 771 770 770 768 767 766 765 764 763 762 761 759 758 756 754 751 747 744 742 738 733 728 722 716 709 702 695 688 680 673 666 662 662 664 666 671 675 677 677 677
751 754 758 761 763 765 766 768 768 768 769 770 771 772 773 774 776 776 777 778 779 780 780 780 780 779 779 778 777 777 776 775 775 775 774 775 775 774 774 774 773 772 771 770 770 768 768 767 766 765 764 763 762 761 760 759 757 756 755 753 750 746 742 739 735 732 727 721 714 707 699 692 685 676 668 661 656 655 657 659 663 668 671 673 673
752 755 758 758 760 761 762 764 764 764 766 767 768 770 771 772 773 774 775 777 777 778 779 778 777 777 776 776 775 775 774 773 773 773 773 774 774 773 773 772 771 771 769 768 767 766 765 765 764 764 763 761 760 759 758 757 756 755 753 751 749 745 741 737 733 730 726 720 713 706 698 689 681 672 665 658 653 651 652 653 656 661 664 666 667
753 755 756 756 757 758 759 760 761 762 763 764 766 768 769 770 771 772 773 775 775 776 777 776 775 775 774 774 774 774 773 773 772 773 773 773 773 772 771 770 770 769 767 766 765 764 763 763 762 762 761 759 758 757 756 756 755 754 752 749 746 742 739 735 732 729 724 719 712 705 697 688 680 671 663 656 650 648 648 649 652 655 658 661 663
751 753 752 753 754 756 757 758 759 760 761 762 764 766 768 769 771 771 772 774 775 774 774 773 773 772 772 773 772 772 772 772 772 772 772 772 771 771 770 769 768 767 765 764 763 762 761 761 760 760 759 757 756 755 755 755 754 752 750 747 743 740 736 733 731 728 723 718 712 706 697 689 680 671 664 657 650 646 645 646 648 650 654 657 660
748 749 750 751 752 754 755 756 758 759 760 762 764 765 767 768 769 770 771 773 773 772 771 771 771 771 771 771 771 771 771 771 771 771 771 770 770 769 768 767 766 765 763 762 761 760 760 759 759 758 757 755 754 753 753 753 752 751 748 745 741 737 734 732 730 727 723 718 713 706 699 690 682 674 668 662 654 646 643 644 645 647 650 654 658
745 746 748 750 751 752 754 755 757 758 759 761 762 764 765 766 767 768 768 769 770 769 769 770 770 770 770 770 770 770 770 769 770 770 769 769 768 767 766 765 764 763 761 760 760 759 758 758 757 756 755 753 753 752 752 752 751 749 747 743 739 736 734 732 730 727 724 719 714 708 701 693 686 679 672 665 656 647 643 643 644 646 649 652 656
743 745 748 749 750 751 752 754 756 757 758 759 760 761 763 764 764 764 765 766 768 768 768 769 768 769 769 768 769 769 768 768 769 768 767 767 766 765 764 763 762 761 760 759 758 757 756 756 755 754 753 752 752 752 752 751 750 748 745 742 739 737 734 732 731 728 725 721 716 709 702 696 689 681 674 666 658 650 646 644 644 646 649 652 654
742 744 747 749 750 750 751 753 754 755 757 758 759 760 760 760 761 762 764 766 767 767 767 768 767 768 767 767 767 768 767 767 767 766 766 765 764 764 763 761 760 759 758 757 756 755 755 754 754 753 753 752 751 751 751 750 748 746 744 742 739 738 735 734 732 729 725 722 717 711 704 698 691 683 676 669 663 657 653 649 647 647 649 651 653
743 744 745 747 748 749 750 751 752 754 755 756 757 757 757 758 760 762 764 765 765 766 766 767 766 766 766 766 766 766 766 766 765 764 764 763 763 762 761 760 759 758 757 756 755 754 754 753 753 752 751 751 751 750 750 749 747 746 744 742 740 738 736 733 730 727 724 721 717 712 706 700 694 688 681 675 670 665 661 657 653 651 651 651 652
742 743 744 745 746 747 749 750 751 752 753 754 755 756 757 759 760 762 763 764 764 765 765 765 765 765 764 764 765 764 764 764 764 763 762 761 761 761 760 759 758 757 757 756 755 754 754 753 752 751 751 751 751 750 749 748 746 745 744 742 741 738 735 732 729 727 724 721 718 714 709 702 697 693 687 682 676 671 668 665 662 659 656 655 655
740 741 742 743 745 746 747 749 750 751 752 753 754 756 758 759 760 761 762 763 763 764 764 764 764 763 763 763 763 763 763 763 763 762 761 760 760 760 759 758 758 757 757 756 755 754 753 752 752 751 751 751 751 750 749 748 747 745 744 742 741 739 736 734 731 728 726 723 719 716 711 706 701 696 691 686 681 677 675 672 669 666 663 661 661
739 740 740 741 743 744 746 748 749 750 751 752 753 755 756 758 759 760 761 762 762 763 763 762 762 763 763 763 763 763 763 763 762 761 760 759 759 759 759 758 757 757 756 756 755 755 754 753 752 752 752 752 751 750 750 749 747 746 744 743 742 740 737 736 733 730 727 724 720 717 713 709 705 700 695 690 685 682 680 677 674 671 669 667 665
738 738 740 741 742 743 745 746 747 748 749 750 751 753 755 757 758 760 761 761 762 762 762 762 762 762 763 763 763 763 763 762 762 761 760 759 759 759 759 758 757 757 756 755 755 756 755 754 754 753 752 752 751 751 750 749 748 747 745 744 742 741 739 737 735 732 729 725 722 719 715 712 708 703 698 694 690 686 684 680 677 674 672 670 668
736 738 739 740 741 742 744 744 746 747 747 749 750 751 752 754 756 758 760 761 761 761 761 762 762 762 762 763 763 763 763 762 762 761 760 759 759 758 758 758 757 756 756 755 755 756 756 756 755 754 754 753 753 752 751 750 749 748 747 745 744 742 741 739 736 733 730 727 725 722 718 715 711 706 702 698 694 691 688 685 681 678 675 674 671
736 737 738 739 740 741 742 743 744 745 746 747 748 749 751 752 753 755 757 759 760 761 761 761 762 762 762 763 763 763 763 762 762 761 760 759 759 758 758 757 757 756 756 755 756 757 757 757 757 756 756 755 754 753 751 750 750 749 747 746 745 743 741 739 736 734 732 729 726 723 720 717 713 710 707 703 700 697 694 690 686 683 681 679 678
736 737 737 738 739 740 741 741 742 743 745 746 747 748 749 750 751 753 754 756 758 759 760 761 761 762 762 762 763 763 763 763 762 761 760 759 759 758 757 757 757 757 757 756 757 757 758 758 758 757 757 756 754 753 752 751 750 749 748 747 745 743 741 739 737 735 733 731 728 725 722 719 716 714 711 709 706 703 700 696 693 690 687 685 683
736 736 736 737 737 738 739 740 740 741 743 744 745 747 748 749 750 751 753 754 756 758 759 761 761 762 762 762 762 763 763 762 762 761 760 759 759 758 757 757 757 757 757 757 757 758 759 759 758 758 757 756 755 754 753 751 751 750 750 748 746 744 742 740 738 736 735 732 730 727 724 722 719 716 714 712 710 707 705 701 698 695 692 690 688
735 736 735 736 736 737 738 739 740 741 742 743 744 746 747 748 750 751 752 754 755 757 758 760 760 761 762 762 762 762 762 762 762 761 760 760 759 758 758 757 757 757 757 758 758 759 759 759 759 758 758 757 756 755 753 752 752 751 750 749 747 746 744 742 740 738 736 734 732 730 727 724 722 719 716 714 712 710 708 705 702 699 697 694 691
735 735 735 735 736 737 737 738 739 740 741 742 744 745 746 748 749 750 751 753 754 755 757 758 759 761 761 761 761 761 760 761 761 760 760 760 759 759 759 759 758 758 758 758 759 759 759 759 759 759 758 757 757 755 754 753 752 751 750 749 748 747 745 743 741 739 737 736 734 732 730 728 725 722 719 716 714 712 711 709 706 703 701 698 696
734 734 735 735 735 737 738 738 739 740 741 742 744 745 746 747 748 750 751 752 753 755 756 757 759 760 760 760 760 759 759 760 760 760 760 759 759 759 759 760 760 760 759 759 759 759 759 759 759 759 758 758 757 756 755 754 752 751 750 749 748 747 745 744 741 740 738 737 735 734 733 731 728 725 722 719 717 715 714 712 710 708 705 703 700
733 734 734 734 735 736 737 738 739 740 741 742 743 744 745 747 748 749 751 752 753 754 755 756 757 758 759 759 759 759 759 759 759 759 759 759 759 760 760 760 760 760 760 760 760 760 760 759 759 759 758 758 757 756 755 754 753 752 751 750 748 747 746 745 743 741 740 738 737 735 734 733 731 728 725 723 721 719 717 715 713 711 709 707 704
732 733 734 734 735 735 736 737 739 739 740 742 743 744 745 746 747 749 750 751 752 753 754 755 756 757 758 759 758 758 759 759 759 759 759 759 759 760 760 760 760 760 760 760 760 760 760 759 759 759 758 758 758 757 756 755 754 753 751 750 749 748 747 745 744 743 741 739 738 736 735 735 733 731 729 726 725 723 720 718 716 714 711 709 707
732 733 733 734 735 735 736 737 738 739 740 741 742 743 745 746 747 748 749 750 751 752 753 754 755 756 757 758 757 757 758 758 759 759 759 759 759 759 759 760 760 760 760 760 760 760 760 759 759 759 759 758 758 757 756 756 754 753 752 751 749 748 747 746 745 744 742 741 740 738 736 736 735 734 732 730 727 725 723 721 719 716 714 711 709
733 733 733 734 735 736 736 737 738 739 740 741 742 743 744 745 746 747 748 749 750 750 751 752 754 755 757 757 757 757 757 757 758 759 759 759 759 759 759 760 760 760 760 760 759 760 760 759 759 759 759 759 758 757 756 756 755 754 753 752 750 749 748 747 746 745 743 742 741 739 738 737 736 735 733 731 729 727 725 723 721 719 716 714 711
733 734 734 735 735 736 738 738 739 740 740 741 742 743 744 745 746 747 747 748 749 748 749 751 753 754 756 756 755 755 756 756 757 758 758 758 758 758 758 759 759 759 760 760 760 760 759 759 759 759 759 759 758 757 757 757 756 755 754 752 751 750 749 748 747 746 744 743 743 741 739 738 737 736 734 732 731 729 727 725 723 721 719 716 714
734 735 735 735 736 737 738 739 739 740 740 741 742 743 744 744 745 746 746 747 747 747 748 750 751 753 754 754 754 754 754 755 756 756 756 757 757 757 758 758 759 759 759 759 759 759 759 759 759 759 759 759 758 757 757 757 757 756 755 753 752 751 750 749 748 747 746 745 744 743 741 739 739 738 736 734 732 730 728 727 725 723 721 719 717
735 735 735 736 736 737 738 739 740 740 741 741 742 743 743 744 745 745 746 746 746 747 748 749 750 751 752 752 752 753 753 754 755 755 755 755 756 756 757 757 758 759 759 759 759 759 759 759 759 759 759 759 758 758 758 758 757 756 755 754 753 752 751 751 750 749 747 746 745 744 742 741 740 740 738 735 734 732 730 729 727 726 724 722 720
735 735 735 735 736 736 737 738 739 740 741 741 742 742 743 743 744 744 744 744 745 746 747 747 748 749 749 750 751 751 752 753 753 753 754 754 755 756 757 757 757 758 758 758 759 759 759 759 759 759 759 758 758 758 758 758 757 757 756 755 754 753 752 752 751 750 749 748 746 745 744 743 742 741 739 737 735 734 732 731 729 728 727 725 723
734 734 734 735 735 736 737 737 738 739 740 740 741 741 741 741 741 742 742 742 743 744 745 745 747 747 747 748 749 750 751 751 751 752 753 753 754 756 756 757 757 757 757 758 758 759 759 759 759 759 758 758 758 758 758 758 757 757 756 755 755 754 753 753 752 751 750 749 748 747 746 744 744 743 741 739 737 736 734 733 731 730 729 727 726
733 734 734 734 734 735 735 736 737 737 737 738 739 739 739 739 740 740 740 740 741 742 743 744 745 746 746 746 747 748 749 750 750 751 751 752 754 755 755 756 756 757 757 757 758 758 758 759 759 758 758 758 758 758 759 758 757 757 756 755 755 754 754 753 753 752 751 750 749 748 747 746 745 744 742 741 740 738 737 735 734 732 731 730 728
733 733 733 733 734 734 734 735 735 735 736 736 737 737 737 738 738 738 738 739 740 741 742 743 743 744 745 745 746 747 748 748 749 750 750 751 753 754 754 755 756 756 756 757 757 758 758 759 758 758 757 758 758 759 759 758 758 757 756 755 755 754 754 754 753 753 752 751 750 749 748 747 746 745 744 742 741 740 739 738 736 735 734 732 731
732 733 733 733 733 733 733 733 733 733 734 734 735 735 735 736 736 736 737 737 738 740 741 742 742 743 744 744 745 746 746 747 748 749 750 751 751 752 753 754 755 756 756 756 757 757 758 758 757 757 757 757 758 759 759 759 758 757 756 756 755 754 754 754 753 753 753 752 751 750 749 748 747 746 745 744 743 742 741 740 739 738 737 735 734
Wind_Speed
30 29 26 24 23 22 21 20 17 15 15 14 14 13 13 14 15 15 13 11 11 11 12 11 10 10 10 10 10 10 11 12 12 12 13 14 13 12 12 11 11 12 11 11 10 10 10 9 10 10 9 7 8 9 10 10 11 13 14 14 15 14 15 15 12 14 21 25 28 32 31 30 31 31 33 35 35 35 35 35 35 34 34 35 34
31 30 27 25 23 23 22 20 18 16 15 16 15 15 15 16 16 16 15 13 13 13 14 13 11 11 12 12 12 12 12 13 12 12 13 15 14 14 13 12 12 13 12 11 11 10 10 10 11 11 9 8 9 9 10 10 11 13 14 13 15 15 15 16 16 15 20 25 29 33 32 29 30 31 31 33 35 34 34 35 36 35 34 35 36
32 30 29 26 24 24 22 20 18 16 16 17 16 16 16 17 16 16 17 16 16 16 16 14 13 13 14 14 15 14 14 14 13 13 14 14 14 14 14 14 14 15 14 13 12 11 11 11 12 12 10 10 11 11 10 10 11 13 14 13 14 16 16 17 18 18 20 25 27 31 33 31 31 32 31 32 35 35 35 36 36 36 35 35 36
33 31 29 27 25 23 22 21 18 16 17 17 17 17 17 19 19 18 18 18 18 16 14 12 12 13 14 15 17 17 15 13 14 15 15 14 14 14 15 15 16 15 14 13 13 12 12 13 13 13 12 13 14 13 12 12 13 13 14 15 15 17 19 19 20 21 22 25 26 30 33 32 32 34 32 31 34 34 34 35 36 36 36 35 36
34 32 30 28 26 24 23 21 19 17 18 19 19 19 18 18 16 12 12 15 15 13 10 9 10 11 12 14 15 15 14 11 12 13 15 14 14 15 15 15 15 14 13 14 14 14 14 15 15 14 14 15 15 15 13 13 14 15 16 17 17 19 20 21 22 23 23 25 27 29 33 33 32 33 32 30 32 33 32 33 35 35 35 36 37
34 33 31 29 27 25 24 23 20 19 20 20 20 21 20 17 12 6 7 10 10 9 9 10 10 10 11 10 9 10 11 11 12 13 14 15 14 15 15 16 15 14 14 14 14 15 15 16 17 17 16 17 17 17 15 14 15 17 17 18 19 20 22 22 23 24 25 27 29 28 31 32 30 31 32 29 30 31 29 29 32 33 33 34 35
35 33 31 29 28 27 25 22 21 20 21 21 20 19 18 15 12 8 7 8 8 9 9 9 9 10 10 9 10 12 13 13 13 14 15 15 14 14 15 16 16 15 15 15 15 15 16 18 19 19 18 18 19 19 18 17 17 18 19 20 21 22 23 23 24 25 26 27 28 27 27 30 29 29 31 31 30 31 28 26 27 29 30 32 33
35 34 32 30 29 28 25 21 21 22 22 22 20 19 17 15 14 12 10 10 10 9 8 8 10 12 12 13 15 14 13 12 12 12 13 13 14 15 15 15 15 15 15 15 15 16 17 18 19 20 20 20 20 21 22 21 20 21 22 22 22 22 23 23 24 25 26 26 27 27 26 28 28 28 29 29 26 27 27 26 25 26 28 29 31
37 35 32 31 29 27 24 22 23 23 23 22 20 19 18 16 15 15 15 14 13 11 9 10 12 14 15 16 14 12 12 13 13 12 13 13 14 14 15 15 14 14 14 14 15 16 17 18 19 20 20 20 20 21 22 23 23 24 24 24 23 23 23 23 24 25 25 24 25 26 24 24 26 25 25 25 24 25 27 27 26 27 27 27 29
39 36 32 30 28 27 25 25 26 25 25 23 21 20 18 17 15 15 15 14 13 12 12 13 13 15 16 16 13 13 14 15 14 14 13 13 13 13 15 16 16 16 16 15 16 16 17 18 19 19 19 19 20 21 22 23 24 24 25 25 24 23 23 24 24 24 23 22 24 25 21 21 25 26 24 26 27 28 28 27 25 26 25 23 24
37 36 32 26 23 25 27 27 26 28 27 24 22 21 18 17 15 14 14 14 14 15 15 15 15 15 16 16 15 15 15 15 15 16 15 14 14 14 14 16 16 17 17 17 17 17 17 18 19 19 19 20 22 23 23 24 24 24 25 25 23 21 22 24 24 23 22 22 24 25 22 22 27 30 27 27 28 27 27 28 26 25 22 17 15
35 32 24 17 18 23 25 25 24 26 26 23 22 20 18 16 15 15 15 16 17 17 17 16 16 16 15 15 14 14 15 16 17 18 17 15 14 14 14 15 16 17 19 18 18 18 17 18 18 19 20 22 24 25 24 24 24 24 24 24 23 22 24 25 25 24 23 23 25 27 26 25 28 31 30 28 28 28 28 28 27 25 22 19 16
25 19 12 8 19 23 23 24 24 23 24 23 21 19 17 17 17 17 17 18 18 18 18 17 16 17 16 15 15 15 16 17 17 16 17 16 14 13 13 15 16 18 20 21 20 19 18 18 18 18 21 23 24 24 23 23 23 22 22 23 24 26 27 26 26 26 26 26 26 28 31 31 30 33 35 32 30 29 27 26 28 26 24 24 24
20 14 6 11 21 25 26 26 25 25 25 23 21 19 19 18 18 18 19 19 19 18 18 16 16 16 17 16 16 16 16 16 15 14 14 15 14 13 13 14 16 19 21 22 22 22 20 18 19 20 22 22 21 21 21 21 21 22 23 24 26 28 27 26 27 28 29 29 29 32 37 38 37 40 42 39 35 32 30 28 28 27 26 27 29
18 12 13 20 25 28 29 28 27 27 26 24 22 21 20 19 20 20 20 19 19 17 16 15 15 15 16 16 16 16 14 14 15 14 13 13 13 13 13 14 16 18 21 21 22 22 20 19 20 21 22 21 19 19 19 19 20 22 24 26 28 28 26 25 27 29 30 33 36 39 43 44 44 45 45 42 38 36 35 35 34 31 30 29 28
13 13 22 26 28 30 29 28 28 28 26 24 23 22 21 21 21 21 21 19 18 17 16 16 16 16 17 17 16 13 10 11 12 12 13 16 16 14 12 13 15 18 19 19 19 20 20 20 20 20 20 19 18 17 17 18 20 22 25 27 27 28 27 27 28 30 32 38 43 45 46 47 47 47 47 45 42 39 36 34 35 33 29 24 21
23 25 27 28 29 30 28 28 28 27 25 25 23 23 22 22 21 21 21 19 18 17 16 16 17 18 18 16 12 9 10 12 13 13 14 15 14 12 10 13 16 18 18 17 18 19 20 21 20 20 19 17 16 16 16 17 19 22 24 25 25 27 28 29 31 34 37 42 45 45 46 47 47 48 47 44 43 41 36 31 29 28 22 15 12
31 29 27 28 29 30 29 29 29 28 27 27 26 25 24 22 20 19 19 18 15 13 13 16 17 15 11 9 8 9 12 15 17 18 15 10 8 9 12 15 16 15 15 15 16 18 19 19 19 18 16 16 16 16 16 17 19 20 20 21 22 25 27 30 33 37 40 42 44 46 47 47 48 47 43 38 35 36 38 37 32 26 19 13 10
32 30 28 29 30 30 30 30 29 30 30 29 28 27 25 22 19 18 16 14 10 9 10 12 12 9 7 8 9 11 14 15 17 16 12 7 7 11 12 13 12 12 12 14 15 16 18 18 17 15 14 14 15 15 16 16 16 15 16 18 20 23 26 30 31 34 38 41 44 48 49 48 48 45 40 34 27 27 36 42 39 29 22 19 15
31 29 29 31 32 31 31 31 31 32 31 31 29 28 25 21 17 15 12 9 6 7 8 8 6 6 8 11 13 14 15 15 14 11 8 6 8 9 8 7 8 10 11 13 15 17 18 16 15 14 14 14 14 15 15 13 12 14 16 16 18 22 26 27 27 29 34 38 42 46 46 46 46 42 38 33 23 21 30 39 42 35 27 24 21
26 27 29 31 31 31 31 32 33 33 31 30 28 26 22 18 14 10 7 4 4 7 10 9 7 7 10 12 14 14 13 12 10 7 5 5 6 6 5 5 6 10 13 15 16 17 17 15 14 14 14 14 16 15 12 9 10 15 17 17 18 19 21 21 23 28 33 35 39 43 43 43 43 41 39 37 26 18 25 31 38 39 33 28 24
25 29 31 30 29 29 30 30 31 31 28 27 25 21 17 14 11 7 4 3 7 10 11 10 8 8 9 11 12 12 10 10 8 5 4 4 4 5 6 7 9 12 14 15 16 16 16 15 13 13 14 15 15 13 9 8 11 15 18 18 18 18 17 18 21 28 32 34 36 39 41 41 42 41 40 43 36 19 23 27 32 37 36 34 29
30 30 29 27 26 26 25 25 26 25 23 22 20 16 12 9 7 4 2 9 13 13 9 8 7 8 8 8 8 8 7 8 6 4 4 5 5 6 8 9 10 11 12 14 14 14 13 13 12 13 15 14 12 9 7 8 12 16 18 19 18 18 18 19 22 26 30 33 33 35 38 40 41 41 41 44 42 21 20 27 28 34 37 38 35
20 19 17 15 15 15 16 16 17 18 18 17 15 13 10 7 3 3 9 14 15 12 9 8 7 5 5 5 5 5 5 5 5 5 5 5 5 8 10 9 9 9 10 11 12 11 11 11 12 13 13 10 8 7 6 8 13 17 19 21 21 21 21 22 24 25 27 30 31 32 36 39 41 42 42 42 40 23 8 22 26 30 35 37 35
14 13 11 10 11 12 14 15 16 16 16 14 13 11 9 4 2 8 10 11 13 12 11 9 5 3 3 3 3 4 4 4 5 6 6 6 7 9 10 8 7 7 8 8 9 10 11 11 10 9 8 6 7 7 8 10 14 16 19 23 24 23 23 24 24 24 24 27 29 31 34 38 41 43 41 39 38 35 19 4 18 26 30 33 32
12 12 9 10 13 15 17 19 18 16 14 13 12 9 5 1 5 6 7 9 10 10 8 6 5 3 3 3 2 3 4 5 6 6 6 6 8 9 8 8 7 6 6 6 7 9 9 8 7 7 7 7 8 8 8 10 13 15 18 23 25 25 25 24 23 22 22 24 28 31 34 38 42 43 42 39 40 42 37 20 1 16 26 29 27
12 13 13 14 16 19 20 18 14 13 12 12 9 5 3 4 5 6 7 7 6 4 2 3 4 4 4 5 4 4 6 7 6 6 7 7 8 8 8 8 8 8 8 8 9 9 9 8 7 7 7 8 9 8 8 10 14 16 18 21 23 25 25 23 21 20 21 24 27 31 35 37 41 43 42 40 40 41 41 35 21 6 11 23 26
10 13 14 16 16 16 15 13 12 13 12 9 5 3 2 3 5 9 9 7 6 4 3 4 4 3 5 6 5 5 7 7 6 6 8 8 7 6 7 9 10 10 10 10 10 10 10 8 7 8 9 11 12 12 13 15 16 18 20 20 22 24 25 25 25 24 25 27 27 29 34 36 37 39 39 37 37 40 40 38 33 26 12 4 13
11 11 11 11 11 10 11 13 15 14 9 7 7 8 7 8 9 10 8 6 4 4 4 5 5 4 6 7 6 6 7 6 6 7 7 7 5 4 6 8 9 10 11 10 9 9 9 8 9 10 10 12 14 15 16 18 17 19 21 20 22 25 26 27 29 27 27 28 27 28 31 34 35 36 36 35 35 38 38 36 34 32 27 18 11
11 10 10 9 9 10 12 14 14 13 11 12 13 11 9 9 8 8 6 4 3 2 2 4 4 5 6 6 5 5 4 5 5 5 4 3 2 4 6 7 9 9 9 8 8 8 8 8 10 11 10 11 14 15 16 17 18 20 21 20 21 25 26 26 28 27 26 27 27 27 28 31 33 34 33 33 35 36 36 34 32 30 28 24 20
11 8 9 12 15 17 16 15 16 18 17 16 15 13 12 11 8 7 7 5 4 3 2 2 3 3 4 4 3 2 2 2 1 2 2 3 4 6 7 8 9 8 7 6 7 8 9 9 9 10 9 10 12 13 14 15 16 18 20 20 21 24 26 26 26 27 26 27 28 29 29 30 31 32 32 33 34 33 33 33 31 29 29 24 20
10 7 9 13 18 19 16 14 17 19 17 16 16 16 16 15 12 10 8 7 5 5 4 4 4 3 1 1 1 1 2 3 3 3 3 4 4 4 6 8 9 7 5 5 7 8 9 9 9 10 9 9 11 12 13 15 16 17 19 20 20 22 24 24 24 25 25 26 28 29 29 29 30 31 33 34 33 32 31 31 29 28 29 27 25
10 8 8 11 13 14 12 11 14 16 15 16 18 19 19 18 16 13 11 9 8 7 7 6 6 6 6 5 5 6 6 6 5 4 3 3 1 0 3 7 8 7 4 6 9 10 10 10 11 11 10 10 10 11 13 15 16 17 18 19 19 20 21 21 23 24 25 26 27 27 28 29 30 31 32 33 33 31 30 31 30 28 27 26 26
10 8 7 8 9 9 10 10 11 12 13 15 18 20 19 18 17 16 15 12 10 9 9 8 8 9 9 9 9 9 9 7 6 5 4 3 2 0 4 7 6 6 7 10 12 11 10 10 11 11 11 11 12 12 14 16 16 18 19 19 19 20 20 21 23 24 24 26 27 28 28 29 29 30 29 29 31 30 30 30 30 28 25 23 23
10 9 8 8 8 7 9 11 12 12 13 13 14 14 15 15 16 17 16 14 13 12 11 9 9 10 10 8 8 8 8 8 8 7 6 5 3 2 6 8 8 8 10 12 13 11 10 10 10 10 10 12 13 14 15 16 16 18 19 19 19 20 21 22 23 24 23 25 27 28 28 28 29 29 27 26 27 27 27 28 28 27 26 24 22
8 7 8 8 8 8 9 11 12 13 14 13 12 12 12 14 15 15 15 15 15 14 13 11 11 10 9 6 4 3 3 4 6 7 7 6 4 3 6 9 9 9 11 11 10 10 10 10 9 10 10 11 12 13 14 14 15 17 18 18 18 19 20 21 22 23 23 24 26 27 28 28 28 29 27 25 25 26 26 26 27 26 26 26 23
8 6 7 8 9 9 10 11 11 12 14 14 13 13 12 12 13 13 13 15 16 15 15 14 13 11 8 4 1 2 2 3 1 3 6 7 5 5 8 10 9 9 9 9 7 7 9 9 9 9 10 11 12 13 13 14 15 16 16 16 17 17 18 19 21 22 22 23 24 27 28 27 27 29 28 25 25 26 27 27 27 26 26 27 25
7 7 7 8 8 9 10 11 11 13 14 13 13 13 13 12 12 13 12 13 15 16 16 15 14 12 7 4 3 4 4 4 2 2 6 7 7 7 8 8 8 8 9 9 7 7 7 8 9 10 10 11 12 13 13 14 14 15 15 16 16 16 16 18 20 21 22 23 23 24 26 27 27 28 27 25 25 26 27 27 27 26 27 27 25
7 6 7 8 7 7 9 11 11 12 12 12 12 13 13 12 12 12 11 11 13 15 16 15 13 9 5 3 3 3 3 3 4 6 8 8 7 7 8 7 8 8 8 8 8 7 7 8 8 10 11 12 12 12 13 13 13 13 14 15 17 17 16 17 19 20 21 23 23 23 24 25 26 27 27 25 24 24 25 26 26 25 25 25 24
7 6 7 8 7 7 9 10 11 11 12 13 12 12 13 13 13 13 13 12 11 13 15 14 10 6 3 3 4 6 7 6 5 7 8 7 6 6 6 6 6 6 6 7 7 7 7 7 7 9 11 12 12 12 12 12 12 11 12 14 17 17 16 16 17 19 21 22 23 23 23 23 25 26 26 25 24 23 23 24 25 25 23 23 25
8 8 8 8 8 9 10 10 10 11 12 13 12 11 13 16 15 13 13 13 12 12 12 11 8 6 5 4 6 6 6 6 5 6 7 6 5 4 4 4 5 5 5 4 5 7 7 6 6 8 10 10 11 11 11 12 12 11 11 13 16 17 16 16 16 19 20 21 22 23 22 22 24 25 24 24 23 22 22 23 24 25 24 24 24
8 9 8 8 8 10 11 10 10 12 13 14 12 10 12 14 15 14 13 13 12 13 12 11 9 7 5 5 8 7 5 5 4 3 4 5 5 3 2 2 4 5 4 3 4 6 7 6 5 7 9 9 9 10 10 12 13 13 12 14 16 17 17 16 17 19 20 21 22 22 21 21 23 24 23 22 22 22 22 23 23 24 25 25 25
9 9 9 9 9 10 10 11 11 12 12 11 10 9 10 11 12 12 12 11 11 14 15 13 11 9 7 7 9 8 6 5 3 1 1 3 4 3 3 2 2 4 4 4 5 6 6 6 5 6 8 8 8 9 9 11 13 14 13 14 15 16 16 16 17 19 21 21 21 21 20 21 22 23 23 23 23 23 23 23 23 24 24 24 25
9 9 10 10 9 10 11 10 10 9 9 8 8 8 8 8 8 9 9 8 9 12 16 16 13 11 11 10 9 8 7 6 5 3 3 3 3 4 7 6 3 3 3 4 5 5 5 5 5 5 6 7 7 8 9 10 13 13 13 14 15 15 16 16 17 19 21 20 20 21 21 20 21 23 23 23 23 24 25 24 22 23 25 25 25
8 9 9 9 9 10 11 10 10 10 9 8 8 8 8 8 9 9 9 7 5 10 16 17 14 12 11 9 7 6 6 6 5 4 6 6 5 5 6 7 6 6 5 3 4 4 4 4 4 5 5 4 5 6 8 10 12 12 13 13 14 14 15 15 16 17 19 19 19 20 21 20 20 21 22 23 23 24 25 25 23 22 24 25 24
9 9 9 10 10 10 11 10 10 9 8 8 8 9 10 11 11 10 9 7 7 10 14 15 14 14 12 8 5 6 7 7 6 5 6 7 5 3 2 8 10 9 7 5 4 5 4 3 3 4 4 3 3 4 7 10 11 12 12 12 12 12 12 13 14 16 17 17 18 19 20 20 19 19 20 22 23 24 25 25 24 23 24 25 25
9 9 8 10 11 12 11 11 10 10 9 9 10 11 12 12 11 10 9 10 9 9 9 10 13 16 14 7 4 6 9 11 12 10 7 7 6 5 6 10 11 9 6 6 6 5 5 4 3 3 3 2 1 3 7 10 12 11 11 11 11 10 10 11 12 14 15 16 17 18 19 20 19 18 19 21 23 24 25 25 24 24 24 24 25
9 11 9 10 12 14 13 12 12 12 12 11 11 11 11 10 10 11 12 12 11 10 10 10 10 12 12 8 5 8 11 11 13 14 12 9 9 9 9 8 7 6 5 5 4 4 4 4 3 2 3 2 1 3 7 11 12 11 11 11 11 9 9 10 11 12 14 14 15 16 18 19 18 17 19 21 22 23 24 24 23 24 24 24 25
6 9 9 9 11 14 16 16 15 14 12 11 12 12 11 10 10 12 14 15 14 13 14 12 9 9 10 10 9 11 12 9 7 9 12 13 13 10 8 7 6 6 6 5 3 3 4 4 4 3 4 3 1 3 7 12 13 11 11 11 11 8 7 8 10 12 12 13 14 16 17 17 15 15 18 21 20 20 23 23 22 23 23 24 25
5 5 7 8 8 10 13 15 15 13 12 11 12 13 14 14 14 14 16 17 15 13 12 10 8 9 11 11 9 10 12 10 6 5 10 15 14 9 6 6 7 7 7 6 5 4 4 4 5 6 6 4 1 2 6 13 15 12 10 11 11 9 6 6 8 11 12 13 14 15 16 14 13 14 18 20 19 19 21 22 21 21 23 24 24
10 11 10 9 9 11 14 16 15 14 15 15 16 15 15 15 15 16 17 17 15 13 11 9 7 8 11 10 7 7 10 10 8 7 9 11 10 6 4 5 7 8 7 6 5 6 6 5 6 8 9 6 2 1 5 12 15 13 10 10 10 9 6 5 6 9 11 12 13 14 14 14 13 14 18 20 19 18 19 20 19 19 21 23 23
Wind_Direction
191 188 186 185 186 190 191 191 192 195 200 207 212 216 224 230 232 236 240 241 239 244 259 272 277 276 279 285 289 289 288 285 285 286 286 289 290 286 283 282 283 279 275 278 273 270 281 284 280 291 299 291 297 315 328 334 334 332 335 336 333 329 316 302 293 297 304 309 309 308 308 305 296 290 284 278 272 268 265 263 263 262 259 258 258
190 188 187 187 189 189 188 188 188 191 200 208 214 220 228 234 236 239 242 244 244 249 259 265 270 270 272 279 281 280 284 285 281 274 275 284 286 282 280 278 277 277 277 279 276 272 277 277 278 289 291 280 285 303 316 320 321 322 330 335 326 322 317 303 294 293 301 309 312 310 309 306 298 291 286 279 273 269 265 262 260 258 258 257 256
188 188 187 187 188 187 189 191 190 195 205 211 216 221 229 238 241 243 244 244 245 250 255 257 260 263 266 274 277 277 282 282 278 269 268 279 286 283 280 275 275 279 278 277 277 274 271 269 274 281 276 269 275 290 305 306 304 309 319 326 318 314 316 308 297 293 297 305 310 309 307 306 300 294 287 281 275 269 265 262 258 255 256 255 254
186 185 186 188 188 187 191 195 193 197 206 212 217 222 232 243 246 247 246 243 244 249 253 253 259 265 269 276 279 276 275 276 276 270 266 276 287 286 283 277 275 279 279 276 275 274 273 269 269 274 270 264 267 279 292 292 293 299 307 313 311 309 312 309 301 296 297 301 306 307 305 303 300 296 289 282 278 270 262 259 257 254 254 254 253
183 183 185 187 186 188 193 195 192 197 207 213 218 223 231 239 244 244 233 231 237 242 247 255 265 272 277 285 287 278 271 275 283 277 270 275 284 287 286 283 279 277 277 276 274 273 274 272 271 271 267 262 262 270 281 285 288 293 299 304 307 306 307 306 303 302 299 298 302 305 304 301 299 297 292 285 280 272 262 257 255 254 254 254 253
182 182 184 184 185 190 195 194 193 199 208 214 220 226 230 233 240 239 203 203 221 235 250 261 268 277 283 290 297 290 287 290 292 288 280 277 283 287 289 288 285 279 277 278 278 276 275 276 277 273 265 262 261 263 271 280 284 289 295 302 305 304 302 301 304 306 304 300 301 303 303 301 299 298 296 292 283 274 264 258 255 252 251 252 250
180 181 183 183 186 193 196 196 198 204 211 216 220 225 229 232 240 245 224 218 239 258 266 268 276 286 286 289 297 298 298 295 290 288 283 279 281 285 289 291 287 282 282 285 285 282 281 282 282 276 269 266 263 261 267 274 281 289 296 301 304 302 299 300 305 308 306 303 302 301 300 300 299 297 298 298 290 277 267 260 257 253 250 248 246
177 180 183 184 190 195 196 198 202 208 214 217 219 223 228 231 235 241 247 256 269 278 278 277 285 288 286 289 293 292 292 291 286 285 284 281 280 283 287 289 287 285 287 291 292 289 288 289 287 280 274 271 267 265 269 272 278 289 296 300 301 298 297 300 305 308 307 303 301 302 301 299 297 297 299 300 295 281 267 256 254 254 251 249 246
176 179 181 185 192 196 197 200 205 209 213 216 219 222 224 225 232 244 255 264 273 281 283 283 283 281 282 286 284 282 291 295 287 283 284 281 278 280 284 284 281 283 286 292 297 297 296 297 296 289 281 275 273 273 275 276 279 286 294 298 298 296 297 300 303 305 306 303 302 303 302 299 296 297 298 297 294 289 279 264 254 253 253 251 249
175 178 179 185 193 197 199 202 206 209 211 213 217 219 221 225 234 245 253 260 267 270 274 279 278 277 280 280 275 280 291 291 282 280 282 280 274 271 274 276 274 275 280 285 290 295 299 300 303 301 293 284 282 281 280 280 281 285 292 295 293 292 295 298 300 303 304 302 303 304 303 300 297 294 291 290 290 292 291 280 263 255 254 252 251
174 175 175 182 193 196 198 202 206 209 211 211 214 218 221 227 232 240 247 254 259 260 265 271 273 275 276 275 276 280 284 284 283 284 284 282 275 268 269 272 271 272 275 277 281 288 292 297 303 305 298 291 289 287 284 282 282 285 290 292 289 289 295 295 294 299 303 301 301 302 299 296 296 293 289 287 287 286 287 284 272 257 250 248 248
168 167 162 173 194 195 194 198 202 205 206 208 213 216 219 222 228 235 244 251 255 256 259 264 268 271 270 271 277 280 282 286 288 289 290 288 283 277 274 273 272 273 273 274 279 282 285 293 302 302 298 297 294 292 292 292 291 289 289 291 289 290 297 298 294 297 302 299 297 298 296 294 294 292 287 285 284 282 280 280 275 263 251 245 242
152 143 128 176 210 207 200 200 202 204 207 210 212 215 219 224 231 239 245 250 253 254 256 260 265 268 265 265 274 280 283 287 290 294 296 293 288 284 282 280 278 279 279 280 281 279 280 290 298 299 305 308 303 299 300 302 302 297 290 290 290 292 301 305 303 303 304 299 294 294 295 295 291 289 286 282 279 276 274 273 273 268 256 247 243
129 126 147 226 226 217 208 206 208 211 213 214 215 217 221 228 235 241 245 247 251 254 256 259 266 268 265 265 273 279 284 289 292 295 295 288 283 283 286 286 284 284 284 284 281 277 279 287 291 297 310 316 312 309 309 309 308 304 297 294 293 296 303 308 309 309 307 305 302 298 298 297 293 289 286 279 272 268 265 264 266 267 263 255 248
119 144 214 234 227 214 208 208 210 213 215 215 214 216 222 230 236 240 244 247 251 254 255 260 269 273 272 272 272 275 284 292 292 292 294 289 280 280 285 287 289 290 289 288 283 277 279 284 286 296 311 316 314 314 315 314 310 304 300 297 296 300 303 306 310 310 307 309 309 305 303 301 296 292 287 278 268 261 258 257 258 262 267 265 256
144 198 223 225 217 209 206 207 209 212 213 211 213 218 221 228 234 239 243 245 249 253 256 262 269 272 275 276 273 273 288 300 298 299 306 301 284 274 278 286 293 296 295 293 286 279 279 281 283 296 310 312 313 315 313 310 308 302 298 297 299 301 300 302 308 310 310 314 314 311 309 307 302 297 290 282 270 258 253 254 253 253 257 258 254
194 212 222 221 215 208 206 208 210 212 212 210 214 219 220 225 232 237 241 243 248 257 265 269 268 269 274 275 272 277 288 293 293 295 302 300 282 270 282 295 298 298 296 292 285 281 280 279 284 298 305 307 313 316 309 306 306 302 301 302 304 303 303 305 310 313 318 320 319 317 316 313 309 303 296 289 277 260 247 243 242 239 241 243 241
204 214 223 222 215 208 208 211 213 214 215 214 216 218 219 222 227 231 237 243 251 265 276 274 268 269 275 274 273 285 292 295 298 296 293 289 281 289 302 302 300 301 301 296 289 285 282 283 291 299 300 305 314 312 307 309 309 307 310 313 310 307 308 313 316 321 324 325 325 326 325 322 320 314 305 297 284 259 239 232 230 228 231 237 231
208 217 225 222 214 209 210 213 216 217 217 216 216 217 217 217 224 232 238 243 254 277 285 276 268 271 284 286 290 300 306 311 311 304 292 285 297 307 306 301 304 311 309 301 296 292 289 293 299 299 299 307 311 306 309 315 315 319 327 323 313 310 313 318 323 326 326 328 332 332 329 327 327 324 317 311 294 258 236 229 225 222 225 233 230
214 221 224 219 212 210 212 213 216 218 217 215 216 217 216 216 220 225 227 232 254 282 287 285 287 298 300 299 304 310 318 323 321 307 296 302 311 315 313 309 312 312 305 300 300 299 300 304 305 301 302 309 309 309 316 319 319 329 336 329 316 313 317 323 332 334 330 331 334 332 328 327 329 328 329 328 308 261 237 228 221 217 219 226 230
223 224 219 213 208 211 214 215 216 217 217 217 216 214 211 209 205 201 203 224 276 288 288 293 305 311 306 307 311 314 319 326 322 303 296 311 314 310 312 316 312 306 303 303 305 307 310 311 307 302 305 312 314 317 319 316 321 335 341 335 325 322 325 332 341 344 339 337 336 332 329 330 332 333 338 340 326 272 238 227 219 215 214 217 223
226 218 211 208 208 211 214 215 217 217 214 211 206 198 194 195 194 189 190 271 286 281 283 293 307 311 307 310 317 320 319 319 315 296 281 295 297 294 303 314 317 314 312 311 313 315 315 313 308 303 307 314 320 322 315 310 326 340 345 342 339 340 342 342 345 348 344 340 337 334 332 333 335 338 342 345 339 298 238 226 219 214 213 216 219
215 214 210 209 212 215 216 216 214 209 202 194 186 177 173 174 173 158 353 312 290 276 278 295 304 304 307 314 325 327 319 314 312 291 266 275 287 298 312 321 322 317 315 316 319 322 323 321 313 307 308 316 324 325 313 313 332 345 350 353 354 356 358 355 352 348 344 340 338 336 335 336 338 342 344 344 343 322 239 226 221 214 213 217 221
190 194 194 195 202 206 204 199 193 186 179 172 163 151 141 139 138 347 326 303 281 271 285 296 285 285 302 315 331 340 329 313 298 272 261 273 294 307 316 322 318 311 310 316 326 333 333 325 316 316 321 327 333 336 331 333 342 350 358 4 6 5 6 3 356 348 343 341 338 336 338 339 339 343 343 342 347 352 255 225 223 215 210 211 217
146 146 148 153 161 166 167 165 163 162 160 157 150 137 127 126 300 308 300 277 262 266 280 275 249 239 272 287 323 343 327 293 270 261 267 287 303 311 318 322 325 324 319 320 330 333 326 318 320 337 355 2 2 6 1 351 349 351 1 10 12 10 8 3 356 350 344 341 339 337 340 341 340 343 344 346 357 12 17 247 214 208 205 205 214
130 124 134 155 162 163 161 157 154 154 151 147 145 145 148 225 293 289 270 259 258 263 264 241 210 211 232 235 264 298 273 256 256 266 286 305 311 314 321 330 340 345 341 339 339 335 332 340 1 26 37 22 10 11 6 355 354 356 4 11 12 11 9 3 355 350 343 340 343 342 341 343 345 346 349 356 5 13 16 18 153 195 196 200 213
135 138 155 166 164 164 163 159 154 152 152 154 160 180 241 286 285 257 241 236 228 219 199 181 190 207 219 223 230 237 236 239 254 282 305 318 318 321 334 344 349 355 358 360 360 3 14 29 36 40 32 11 8 15 12 5 6 8 10 12 10 9 9 5 357 353 348 346 349 349 346 348 351 351 352 360 7 12 15 20 25 34 197 202 211
155 156 164 167 166 164 167 173 174 167 161 164 176 194 206 213 212 209 207 200 189 180 167 169 179 195 211 217 217 212 221 238 267 297 311 316 318 330 349 355 358 6 7 3 7 24 41 42 27 23 21 12 14 22 17 11 11 12 13 13 8 7 9 9 6 5 1 356 354 354 352 352 354 354 354 358 6 11 15 20 24 25 26 196 209
162 160 162 167 172 168 162 165 166 164 163 162 159 160 165 174 184 189 191 196 199 203 205 203 208 219 218 214 207 201 213 248 289 306 311 314 321 349 10 9 9 13 9 7 17 36 45 40 30 33 32 19 16 17 12 7 6 6 9 12 9 8 10 10 7 6 4 360 357 355 354 353 353 355 356 359 4 10 14 18 23 26 29 35 31
160 165 167 169 171 164 158 160 165 170 176 171 162 158 161 168 175 179 180 182 177 178 206 216 217 221 218 213 211 217 240 281 301 309 317 327 21 59 56 38 25 18 12 20 38 42 40 44 44 42 35 23 19 17 13 9 5 2 5 10 11 10 11 10 6 4 3 2 360 358 357 356 355 355 357 0 3 7 12 16 21 25 28 31 28
165 166 170 175 176 171 168 173 178 178 179 178 171 161 153 151 153 155 151 139 123 123 135 148 165 197 219 228 242 269 296 318 339 359 19 73 92 82 69 55 43 33 27 38 55 51 44 48 48 40 35 30 23 19 18 16 11 6 5 8 10 10 10 8 6 5 4 2 2 3 2 360 358 357 359 2 3 5 9 13 19 24 26 26 26
167 148 144 160 173 177 179 186 185 181 181 182 177 169 159 149 141 136 134 129 121 120 119 119 128 142 176 257 308 59 82 77 66 54 62 85 95 85 73 63 51 44 48 64 67 58 49 47 43 37 35 30 23 21 24 24 19 13 8 6 6 7 8 7 7 8 7 4 3 3 3 2 1 1 3 5 4 4 6 8 14 21 23 23 24
170 160 149 158 173 181 184 186 187 186 186 183 180 179 173 162 153 145 140 136 135 135 133 128 119 106 103 111 108 96 90 80 64 56 62 60 28 59 105 80 51 33 50 79 75 64 57 52 48 43 38 32 25 23 25 23 20 16 11 6 4 4 6 9 12 14 12 8 6 4 4 5 4 4 6 8 7 5 4 6 10 15 18 20 20
178 185 180 174 177 181 184 186 188 188 184 179 180 183 183 177 168 158 151 149 150 152 147 136 122 112 111 115 110 97 91 88 77 66 57 37 9 161 141 116 78 50 64 78 75 68 61 54 49 44 39 33 27 23 22 21 18 14 11 7 5 5 7 12 16 17 15 11 9 7 7 8 8 6 5 7 8 7 5 6 9 12 13 14 15
187 197 195 188 181 183 198 205 200 190 185 180 174 175 178 179 174 169 167 167 164 163 161 150 136 131 126 122 118 109 101 95 86 75 64 48 41 110 136 121 98 79 76 75 69 60 54 48 40 33 28 25 23 21 18 16 16 15 13 10 7 8 10 14 18 19 17 14 12 9 8 9 9 7 7 8 10 10 6 5 8 11 10 9 11
192 190 183 186 185 175 180 191 190 182 178 172 162 153 153 161 168 174 178 174 167 167 168 160 147 142 138 133 132 128 122 114 95 76 67 57 50 108 123 108 95 86 76 68 62 57 51 43 34 29 28 26 25 23 19 17 17 17 15 14 13 12 13 16 18 20 19 17 14 12 10 9 9 8 9 10 12 13 10 6 8 12 12 11 11
189 172 152 160 166 160 159 167 170 164 159 156 154 150 144 145 154 160 164 165 165 167 168 166 163 159 148 139 173 253 229 203 165 66 79 81 75 89 100 96 93 88 73 59 58 60 53 44 35 33 35 35 31 26 24 22 20 17 15 18 19 18 16 16 19 21 20 18 16 14 11 10 9 9 9 9 11 13 13 10 10 10 12 15 16
174 166 152 148 152 157 158 156 153 154 152 150 152 151 145 141 144 146 149 156 161 164 167 169 170 167 159 166 223 240 232 229 237 115 113 104 86 87 94 91 88 86 74 63 63 63 52 43 39 36 39 40 34 29 26 22 18 16 16 17 20 22 20 18 20 22 20 17 16 14 12 10 10 10 10 10 10 12 12 12 11 10 10 13 14
172 163 155 155 161 170 172 164 158 159 160 157 154 153 150 147 147 149 151 152 151 153 156 158 158 159 168 191 198 173 156 145 121 118 121 113 98 98 101 92 84 80 70 63 65 60 47 44 43 39 39 39 35 31 29 23 17 16 16 15 18 22 23 21 21 22 20 17 15 14 13 12 11 11 12 13 12 12 12 12 12 11 9 8 8
176 165 156 159 164 171 175 169 163 161 160 158 158 161 163 162 159 158 161 161 152 146 149 153 152 147 155 175 157 124 112 109 111 119 122 116 109 114 117 109 98 85 69 64 66 59 48 46 42 35 35 38 37 35 31 24 19 17 17 16 18 23 27 28 27 25 22 19 16 15 14 14 14 14 15 16 15 14 13 13 13 13 11 9 9
172 161 154 153 153 160 166 164 161 165 166 164 165 168 166 164 163 162 163 164 160 152 151 157 158 141 131 164 175 145 112 98 106 117 115 107 100 109 122 124 121 110 93 83 78 64 52 48 42 33 31 34 35 33 28 22 20 22 23 22 23 27 33 35 34 30 27 22 18 17 17 17 16 16 16 17 18 17 16 15 14 13 13 12 12
158 150 149 149 149 156 161 160 160 165 165 163 164 162 156 157 163 164 162 162 166 166 161 160 161 151 140 168 181 162 117 97 107 111 112 119 124 121 112 118 127 122 110 107 105 80 57 48 47 39 35 34 33 31 26 21 21 26 30 28 27 31 36 38 37 34 30 25 20 20 21 21 19 18 18 19 19 18 18 17 17 16 14 14 14
145 138 134 136 141 147 151 153 155 156 154 156 157 153 151 159 166 166 165 174 187 184 175 168 163 155 144 151 161 151 121 115 136 150 147 160 170 187 205 203 145 118 94 84 104 100 69 55 58 51 45 45 40 30 24 20 21 27 32 30 30 35 38 39 38 36 31 26 23 22 24 24 21 19 19 20 20 19 18 18 18 18 17 15 15
143 137 130 129 134 140 145 149 151 148 148 159 168 170 171 174 171 169 179 204 214 192 176 170 166 157 146 146 150 146 137 147 168 192 208 219 244 233 217 211 190 154 126 86 90 103 89 72 72 65 58 56 45 30 22 17 19 26 31 30 32 38 40 39 39 35 29 26 24 23 24 25 23 20 20 21 20 19 18 18 18 19 19 17 17
151 147 143 139 139 145 152 157 159 161 164 171 179 186 189 188 186 189 197 210 204 173 167 168 168 164 158 157 159 161 166 174 183 208 224 234 264 273 230 205 178 155 151 122 91 98 103 92 80 68 61 58 45 31 20 13 16 26 32 31 33 39 40 39 40 37 31 28 27 26 25 26 25 22 21 23 21 19 18 20 21 21 20 19 18
162 157 159 161 159 160 168 171 170 175 184 185 187 197 202 203 206 205 192 170 149 151 159 166 171 172 172 171 172 180 190 195 195 198 207 216 234 275 206 175 164 152 141 123 96 88 94 98 86 75 76 71 41 21 14 12 18 27 31 30 35 41 42 41 41 39 35 33 31 30 29 29 28 25 25 26 25 22 20 23 26 25 23 21 19
181 174 178 181 176 174 180 184 185 191 199 202 203 204 203 207 214 209 183 162 156 162 172 182 185 183 181 178 180 200 209 212 209 206 198 191 189 174 148 149 155 156 146 131 114 102 102 100 84 85 106 112 17 8 13 17 21 27 29 29 33 39 45 48 45 40 38 38 38 35 33 31 30 29 30 30 28 24 22 24 26 26 25 24 22
198 192 197 199 194 192 194 192 187 188 196 208 213 207 201 210 219 209 192 185 188 199 211 218 212 200 195 197 219 228 221 215 215 218 215 199 180 170 161 154 151 149 148 148 143 140 139 124 104 126 170 193 314 356 9 12 15 21 27 29 29 34 43 50 50 45 42 43 44 41 38 35 33 33 33 33 29 26 26 27 27 27 27 26 25
205 198 206 208 202 197 193 190 189 191 198 209 215 213 214 219 215 204 200 203 209 215 222 229 235 230 219 213 216 217 209 204 218 227 212 192 179 171 169 169 166 161 160 156 150 163 168 147 131 161 188 198 264 336 2 9 9 12 19 24 26 33 46 52 52 50 48 47 46 44 41 38 36 36 37 36 32 29 31 31 29 29 29 28 26
330 296 264 243 225 210 199 196 201 207 212 219 227 230 229 226 219 212 209 207 205 207 215 224 234 225 205 190 188 198 196 193 197 191 172 167 168 167 163 165 169 169 168 162 158 173 180 159 156 184 196 194 221 316 2 13 12 9 9 12 15 24 45 63 61 55 53 51 49 45 40 37 37 40 42 40 34 32 36 36 32 31 31 28 27
334 331 316 292 272 252 233 223 222 224 224 229 235 236 231 228 227 223 215 207 199 194 199 210 218 202 185 177 188 206 197 189 189 183 165 162 168 172 166 166 172 176 180 180 181 186 180 162 169 192 198 191 195 301 2 14 16 15 12 5 3 10 29 55 66 62 59 57 55 47 39 35 38 45 47 42 35 34 38 39 36 35 35 32 31